Audubon, IA

5:45 AM CDT on April 24, 2017 (GMT -0500)
Audubon County

Weather History for KADU - April, 2014

Change the Weather History Date:

Wednesday, April 16, 2014

  Actual Average Record
Temperature  
Mean Temperature 50 °F -  
Max Temperature 64 °F 64 °F 87 °F (2004)
Min Temperature 33 °F 40 °F 19 °F (1988)
Degree Days  
Heating Degree Days 16    
Moisture  
Dew Point 25 °F    
Average Humidity 45    
Maximum Humidity 76    
Minimum Humidity 14    
Precipitation  
Precipitation 0.00 in - - ()
Sea Level Pressure  
Sea Level Pressure 29.81 in    
Wind  
Wind Speed 18 mph (SSW)    
Max Wind Speed 31 mph    
Max Gust Speed 46 mph    
Visibility 10 miles    
Events      
Averages and records for this station are not official NWS values.
T = Trace of Precipitation, MM = Missing Value Source: NWS Daily Summary

Daily Weather History Graph

Daily Weather History Graph

Search for Another Location

Airport or City:

Trip Planner

Search our weather history database for the weather conditions in past years. The results will help you decide how hot, cold, wet, or windy it might be!

Date:

Astronomy

Apr. 16, 2014 Rise Set
Actual Time 6:38 AM CDT 8:01 PM CDT
Civil Twilight 6:09 AM CDT 8:30 PM CDT
Nautical Twilight 5:34 AM CDT 9:05 PM CDT
Astronomical Twilight 4:57 AM CDT 9:42 PM CDT
Moon 9:47 PM CDT (4/16) 7:25 AM CDT (4/16)
Length of Visible Light 14h 21m
Length of Day
13h 23m
Full, 98% of the Moon is Illuminated
Apr 16
Full
Apr 22
Last Quarter
Apr 29
New
May 6
First Quarter
May 14
Full

Hourly Weather History & Observations

Time (CDT) Temp. Windchill Dew Point Humidity Pressure Visibility Wind Dir Wind Speed Gust Speed Precip Events Conditions
12:15 AM 39.2 °F 32.0 °F 26.6 °F 61% 29.89 in 10.0 mi SSE 11.5 mph 16.1 mph N/A   Clear
12:35 AM 39.2 °F 31.6 °F 26.6 °F 61% 29.88 in 10.0 mi SSE 12.7 mph 18.4 mph N/A   Clear
12:55 AM 41.0 °F 33.5 °F 26.6 °F 57% 29.87 in 10.0 mi South 13.8 mph 20.7 mph N/A   Clear
1:15 AM 41.0 °F 33.1 °F 26.6 °F 57% 29.86 in 10.0 mi South 15.0 mph 21.9 mph N/A   Clear
1:35 AM 42.8 °F 35.1 °F 28.4 °F 57% 29.86 in 10.0 mi South 16.1 mph 20.7 mph N/A   Clear
1:55 AM 42.8 °F 35.1 °F 28.4 °F 57% 29.86 in 10.0 mi South 16.1 mph 21.9 mph N/A   Clear
2:15 AM 44.6 °F 36.9 °F 26.6 °F 49% 29.85 in 10.0 mi South 18.4 mph 26.5 mph N/A   Clear
2:35 AM 44.6 °F 37.2 °F 26.6 °F 49% 29.84 in 10.0 mi South 17.3 mph 26.5 mph N/A   Clear
2:55 AM 44.6 °F 36.9 °F 26.6 °F 49% 29.83 in 10.0 mi South 18.4 mph 26.5 mph N/A   Clear
3:15 AM 44.6 °F 36.4 °F 26.6 °F 49% 29.83 in 10.0 mi South 20.7 mph 28.8 mph N/A   Clear
3:35 AM 44.6 °F 36.9 °F 26.6 °F 49% 29.83 in 10.0 mi South 18.4 mph 29.9 mph N/A   Clear
3:55 AM 44.6 °F 36.6 °F 26.6 °F 49% 29.82 in 10.0 mi South 19.6 mph 28.8 mph N/A   Clear
4:15 AM 44.6 °F 37.2 °F 26.6 °F 49% 29.82 in 10.0 mi South 17.3 mph 27.6 mph N/A   Clear
4:35 AM 44.6 °F 37.8 °F 26.6 °F 49% 29.82 in 10.0 mi South 15.0 mph 24.2 mph N/A   Clear
4:55 AM 42.8 °F 34.5 °F 26.6 °F 53% 29.81 in 10.0 mi South 18.4 mph 25.3 mph N/A   Clear
5:15 AM 42.8 °F 35.1 °F 26.6 °F 53% 29.80 in 10.0 mi South 16.1 mph 27.6 mph N/A   Clear
5:35 AM 44.6 °F 37.8 °F 26.6 °F 49% 29.79 in 10.0 mi South 15.0 mph 27.6 mph N/A   Clear
5:55 AM 44.6 °F 36.9 °F 26.6 °F 49% 29.79 in 10.0 mi South 18.4 mph 26.5 mph N/A   Clear
6:15 AM 44.6 °F 36.9 °F 26.6 °F 49% 29.79 in 10.0 mi South 18.4 mph 26.5 mph N/A   Clear
6:35 AM 44.6 °F 37.2 °F 24.8 °F 46% 29.79 in 10.0 mi South 17.3 mph 27.6 mph N/A   Clear
6:55 AM 44.6 °F 36.4 °F 24.8 °F 46% 29.79 in 10.0 mi South 20.7 mph 28.8 mph N/A   Clear
7:15 AM 44.6 °F 37.4 °F 24.8 °F 46% 29.80 in 10.0 mi South 16.1 mph 29.9 mph N/A   Clear
7:35 AM 44.6 °F 36.9 °F 24.8 °F 46% 29.80 in 10.0 mi South 18.4 mph 24.2 mph N/A   Clear
7:55 AM 44.6 °F 36.4 °F 24.8 °F 46% 29.80 in 10.0 mi South 20.7 mph 33.4 mph N/A   Clear
8:15 AM 44.6 °F 37.4 °F 24.8 °F 46% 29.81 in 10.0 mi South 16.1 mph 26.5 mph N/A   Clear
8:35 AM 46.4 °F 38.7 °F 24.8 °F 43% 29.81 in 10.0 mi South 20.7 mph 31.1 mph N/A   Clear
8:55 AM 46.4 °F 38.7 °F 24.8 °F 43% 29.80 in 10.0 mi South 20.7 mph 29.9 mph N/A   Clear
9:15 AM 48.2 °F - 24.8 °F 40% 29.79 in 10.0 mi South 18.4 mph 29.9 mph N/A   Clear
9:35 AM 48.2 °F - 24.8 °F 40% 29.78 in 10.0 mi South 20.7 mph 33.4 mph N/A   Clear
9:55 AM 50.0 °F - 24.8 °F 37% 29.78 in 10.0 mi South 27.6 mph 34.5 mph N/A   Clear
10:15 AM 51.8 °F - 24.8 °F 35% 29.77 in 10.0 mi South 25.3 mph 39.1 mph N/A   Clear
10:35 AM 53.6 °F - 23.0 °F 30% 29.76 in 10.0 mi South 20.7 mph 34.5 mph N/A   Clear
10:55 AM 55.4 °F - 21.2 °F 26% 29.76 in 10.0 mi South 25.3 mph 34.5 mph N/A   Clear
11:15 AM 55.4 °F - 19.4 °F 25% 29.76 in 10.0 mi South 27.6 mph 38.0 mph N/A   Clear
11:35 AM 57.2 °F - 19.4 °F 23% 29.77 in 10.0 mi South 25.3 mph 41.4 mph N/A   Clear
11:55 AM 59.0 °F - 17.6 °F 20% 29.76 in 10.0 mi South 28.8 mph 43.7 mph N/A   Clear
12:15 PM 59.0 °F - 17.6 °F 20% 29.76 in 10.0 mi South 25.3 mph 46.0 mph N/A   Clear
12:35 PM 57.2 °F - 17.6 °F 21% 29.76 in 10.0 mi South 29.9 mph 41.4 mph N/A   Clear
1:15 PM 57.2 °F - 19.4 °F 23% 29.74 in 10.0 mi South 28.8 mph 35.7 mph N/A   Clear
1:35 PM 57.2 °F - 19.4 °F 23% 29.74 in 10.0 mi South 27.6 mph 44.9 mph N/A   Clear
1:55 PM 59.0 °F - 19.4 °F 22% 29.74 in 10.0 mi South 29.9 mph 40.3 mph N/A   Clear
2:15 PM 59.0 °F - 21.2 °F 23% 29.75 in 10.0 mi South 27.6 mph 36.8 mph N/A   Clear
2:35 PM 62.6 °F - 19.4 °F 19% 29.73 in 10.0 mi SSW 31.1 mph 44.9 mph N/A   Clear
2:55 PM 62.6 °F - 17.6 °F 18% 29.73 in 10.0 mi South 29.9 mph 44.9 mph N/A   Clear
3:15 PM 64.4 °F - 19.4 °F 18% 29.72 in 10.0 mi South 23.0 mph 42.6 mph N/A   Clear
3:35 PM 62.6 °F - 19.4 °F 19% 29.71 in 10.0 mi South 31.1 mph 41.4 mph N/A   Scattered Clouds
3:55 PM 64.4 °F - 19.4 °F 18% 29.70 in 10.0 mi South 21.9 mph 36.8 mph N/A   Scattered Clouds
4:15 PM 64.4 °F - 19.4 °F 18% 29.70 in 10.0 mi South 24.2 mph 39.1 mph N/A   Scattered Clouds
4:35 PM 64.4 °F - 19.4 °F 18% 29.69 in 10.0 mi South 23.0 mph 32.2 mph N/A   Scattered Clouds
4:55 PM 64.4 °F - 19.4 °F 18% 29.69 in 10.0 mi SSW 19.6 mph 29.9 mph N/A   Scattered Clouds
5:15 PM 64.4 °F - 15.8 °F 15% 29.69 in 10.0 mi SSW 18.4 mph 24.2 mph N/A   Mostly Cloudy
5:35 PM 64.4 °F - 14.0 °F 14% 29.69 in 10.0 mi SW 18.4 mph 29.9 mph N/A   Mostly Cloudy
5:55 PM 57.2 °F - 28.4 °F 33% 29.73 in 10.0 mi WNW 24.2 mph 33.4 mph N/A   Scattered Clouds
6:15 PM 51.8 °F - 30.2 °F 44% 29.76 in 10.0 mi WNW 13.8 mph 27.6 mph N/A   Clear
6:35 PM 48.2 °F - 30.2 °F 50% 29.78 in 10.0 mi WNW 15.0 mph 21.9 mph N/A   Scattered Clouds
6:55 PM 46.4 °F 39.0 °F 32.0 °F 57% 29.80 in 10.0 mi WNW 19.6 mph 25.3 mph N/A   Scattered Clouds
7:15 PM 44.6 °F 37.2 °F 33.8 °F 66% 29.81 in 10.0 mi WNW 17.3 mph 26.5 mph N/A   Scattered Clouds
7:35 PM 44.6 °F 38.1 °F 33.8 °F 66% 29.83 in 10.0 mi WNW 13.8 mph 24.2 mph N/A   Scattered Clouds
7:55 PM 42.8 °F 36.2 °F 33.8 °F 70% 29.85 in 10.0 mi West 12.7 mph 18.4 mph N/A   Mostly Cloudy
8:15 PM 42.8 °F 37.0 °F 33.8 °F 70% 29.87 in 10.0 mi West 10.4 mph 19.6 mph N/A   Mostly Cloudy
8:35 PM 42.8 °F 36.2 °F 33.8 °F 70% 29.88 in 10.0 mi WNW 12.7 mph 17.3 mph N/A   Overcast
8:55 PM 42.8 °F 36.6 °F 35.6 °F 76% 29.91 in 10.0 mi WNW 11.5 mph 21.9 mph N/A   Overcast
9:15 PM 41.0 °F 34.3 °F 33.8 °F 76% 29.92 in 10.0 mi WNW 11.5 mph 18.4 mph N/A   Overcast
9:35 PM 39.2 °F 30.2 °F 32.0 °F 75% 29.95 in 10.0 mi WNW 17.3 mph 26.5 mph N/A   Overcast
9:55 PM 37.4 °F 27.8 °F 30.2 °F 75% 29.97 in 10.0 mi WNW 17.3 mph 25.3 mph N/A   Overcast
10:15 PM 37.4 °F 28.2 °F 30.2 °F 75% 29.98 in 10.0 mi NW 16.1 mph 24.2 mph N/A   Overcast
10:35 PM 35.6 °F 25.5 °F 28.4 °F 75% 29.99 in 10.0 mi NW 17.3 mph 27.6 mph N/A   Mostly Cloudy
10:55 PM 35.6 °F 26.6 °F 28.4 °F 75% 30.01 in 10.0 mi NW 13.8 mph 21.9 mph N/A   Mostly Cloudy
11:15 PM 35.6 °F 27.5 °F 28.4 °F 75% 30.02 in 10.0 mi WNW 11.5 mph 21.9 mph N/A   Mostly Cloudy
11:55 PM 33.8 °F 23.9 °F 26.6 °F 75% 30.04 in 10.0 mi NW 15.0 mph 21.9 mph N/A   Mostly Cloudy